Terminal Aerodrome Forecast
Issued by NWS

Home | Current Version | Previous Version | Graphics & Text | Print | Product List | Glossary Off
Versions: 1 2 3 4 5 6 7 8 9 10 11 12 13 14 15 16 17

000
FTUS43 KDDC 292326
TAFGCK
TAF
KGCK 292326Z 3000/3024 18011KT P6SM SCT250
     FM300300 18008KT P6SM VCTS SCT070CB
     FM301600 18014G21KT P6SM SCT200=

USA.gov is the U.S. government's official web portal to all federal, state and local government web resources and services.